Weather History for Hailey, ID

Change the Weather History Date:

Thursday, November 1, 2012

  Actual Average Record
Temperature  
Mean Temperature 44 °F -  
Max Temperature 53 °F 48 °F 57 °F (2008)
Min Temperature 35 °F 25 °F 8 °F (2002)
Degree Days  
Heating Degree Days 21    
Moisture  
Dew Point 32 °F    
Average Humidity 59    
Maximum Humidity 81    
Minimum Humidity 44    
Precipitation  
Precipitation 0.00 in - - ()
Sea Level Pressure  
Sea Level Pressure 30.00 in    
Wind  
Wind Speed 7 mph (NW)    
Max Wind Speed 13 mph    
Max Gust Speed 17 mph    
Visibility 10 miles    
Events      
Averages and records for this station are not official NWS values.
T = Trace of Precipitation, MM = Missing Value Source: NWS Daily Summary

Daily Weather History Graph

Daily Weather History Graph

Search for Another Location

Airport:

Trip Planner

Search our weather history database for the weather conditions in past years. The results will help you decide how hot, cold, wet, or windy it might be!

Date:

Astronomy

Nov. 01, 2012 Rise Set
Actual Time 8:13 AM MDT 6:27 PM MDT
Civil Twilight 7:43 AM MDT 6:57 PM MDT
Nautical Twilight 7:09 AM MDT 7:31 PM MDT
Astronomical Twilight 6:36 AM MDT 8:04 PM MDT
Moon 8:24 PM MDT (11/1) 10:53 AM MDT (11/1)
Length of Visible Light 11h 13m
Length of Day
10h 14m
Waning Gibbous, 92% of the Moon is Illuminated
Nov 1
Waning Gibbous
Nov 6
Last Quarter
Nov 13
New
Nov 20
First Quarter
Nov 28
Full

Hourly Weather History & Observations

Time (MDT) Temp. Windchill Dew Point Humidity Pressure Visibility Wind Dir Wind Speed Gust Speed Precip Events Conditions
12:15 AM 44.6 °F 40.7 °F 32.0 °F 61% 29.98 in 10.0 mi NW 6.9 mph - N/A   Clear
12:35 AM 44.6 °F 39.7 °F 32.0 °F 61% 29.98 in 10.0 mi NW 9.2 mph - N/A   Clear
12:55 AM 44.6 °F 40.2 °F 32.0 °F 61% 29.97 in 10.0 mi NNW 8.1 mph - N/A   Clear
1:15 AM 44.6 °F 40.7 °F 32.0 °F 61% 29.96 in 10.0 mi NW 6.9 mph - N/A   Clear
1:35 AM 44.6 °F 40.7 °F 32.0 °F 61% 29.96 in 10.0 mi NW 6.9 mph - N/A   Clear
1:55 AM 44.6 °F 40.2 °F 32.0 °F 61% 29.96 in 10.0 mi NW 8.1 mph - N/A   Clear
2:15 AM 44.6 °F 40.2 °F 32.0 °F 61% 29.97 in 10.0 mi NW 8.1 mph - N/A   Scattered Clouds
2:35 AM 44.6 °F 39.7 °F 32.0 °F 61% 29.96 in 10.0 mi NNW 9.2 mph - N/A   Mostly Cloudy
2:55 AM 44.6 °F 38.4 °F 32.0 °F 61% 29.95 in 10.0 mi NW 12.7 mph - N/A   Mostly Cloudy
3:15 AM 44.6 °F 39.2 °F 32.0 °F 61% 29.95 in 10.0 mi NNW 10.4 mph - N/A   Mostly Cloudy
3:35 AM 46.4 °F 42.4 °F 32.0 °F 57% 29.96 in 10.0 mi NNW 8.1 mph - N/A   Overcast
3:55 AM 46.4 °F 43.5 °F 32.0 °F 57% 29.97 in 10.0 mi NNW 5.8 mph - N/A   Overcast
4:15 AM 46.4 °F 42.4 °F 32.0 °F 57% 29.97 in 10.0 mi NNW 8.1 mph - N/A   Overcast
4:35 AM 44.6 °F 41.4 °F 32.0 °F 61% 29.97 in 10.0 mi NW 5.8 mph - N/A   Scattered Clouds
4:55 AM 46.4 °F 44.3 °F 32.0 °F 57% 29.96 in 10.0 mi NNW 4.6 mph - N/A   Mostly Cloudy
5:15 AM 50.0 °F - 32.0 °F 50% 29.98 in 10.0 mi NNW 8.1 mph - N/A   Overcast
5:35 AM 53.6 °F - 32.0 °F 44% 29.99 in 10.0 mi West 6.9 mph 17.3 mph N/A   Overcast
5:55 AM 53.6 °F - 32.0 °F 44% 29.99 in 10.0 mi WNW 4.6 mph - N/A   Overcast
6:15 AM 53.6 °F - 32.0 °F 44% 29.99 in 10.0 mi WNW 4.6 mph - N/A   Overcast
6:35 AM 51.8 °F - 32.0 °F 47% 29.99 in 10.0 mi Calm Calm - N/A   Overcast
6:47 AM 53.6 °F - 32.0 °F 44% 29.99 in 10.0 mi Calm Calm - N/A   Overcast
6:55 AM 50.0 °F - 32.0 °F 50% 29.98 in 10.0 mi NNW 5.8 mph - N/A   Overcast
7:49 AM 51.8 °F - 30.2 °F 44% 29.99 in 10.0 mi WNW 4.6 mph - N/A   Overcast
8:50 AM 51.8 °F - 32.0 °F 47% 30.02 in 10.0 mi Calm Calm - N/A   Overcast
9:50 AM 48.2 °F - 37.4 °F 66% 30.04 in 10.0 mi Calm Calm - N/A   Light Drizzle
11:53 AM 48.2 °F - 35.6 °F 62% 30.04 in 10.0 mi Calm Calm - N/A   Overcast
12:47 PM 48.2 °F - 35.6 °F 62% 30.05 in 10.0 mi South 4.6 mph - N/A   Overcast
1:47 PM 50.0 °F - 37.4 °F 62% 30.02 in 10.0 mi SSW 4.6 mph - N/A   Overcast
2:50 PM 51.8 °F - 33.8 °F 50% 30.00 in 10.0 mi SE 5.8 mph - N/A   Mostly Cloudy
3:50 PM 48.2 °F - 35.6 °F 62% 30.01 in 10.0 mi Calm Calm - N/A   Scattered Clouds
4:49 PM 51.8 °F - 33.8 °F 50% 30.01 in 10.0 mi South 9.2 mph - N/A   Scattered Clouds
6:57 PM 46.4 °F - 33.8 °F 62% 30.03 in 10.0 mi Calm Calm - N/A   Scattered Clouds
7:47 PM 44.6 °F - 32.0 °F 61% 30.05 in 10.0 mi Calm Calm - N/A   Scattered Clouds
8:47 PM 41.0 °F 35.2 °F 30.2 °F 65% 30.06 in 10.0 mi WNW 9.2 mph - N/A   Clear
9:47 PM 39.2 °F 33.6 °F 28.4 °F 65% 30.06 in 10.0 mi WNW 8.1 mph - N/A   Clear
10:50 PM 37.4 °F 31.4 °F 28.4 °F 70% 30.08 in 10.0 mi WNW 8.1 mph - N/A   Clear
11:15 PM 37.4 °F 29.8 °F 30.2 °F 75% 30.09 in 10.0 mi NNW 11.5 mph - N/A   Clear
11:35 PM 35.6 °F 28.0 °F 30.2 °F 81% 30.09 in 10.0 mi NNW 10.4 mph - N/A   Clear
11:55 PM 35.6 °F 27.1 °F 30.2 °F 81% 30.09 in 10.0 mi NNW 12.7 mph - N/A   Clear